Location: Asheville, NC
(35.6000°N, 82.5500°W)
Time: 20:10:53
(UTC-04:00)

YUBILEINY - Pass Details

Date: 11 March 2018
Orbit: 1478 x 1508 km, 82.5° (Epoch: 24 June)

Event Time Altitude Azimuth Distance (km) Brightness Sun altitude
Rises 04:31:34 0° 10° (N) 4,613 ? -39.2°
Reaches altitude 10° 04:36:33 10° 35° (NE) 3,634 ? -38.3°
Maximum altitude 04:40:43 14° 64° (ENE) 3,324 ? -37.6°
Drops below altitude 10° 04:44:53 10° 93° (E) 3,637 ? -36.8°
Sets 04:49:48 0° 117° (ESE) 4,620 ? -35.9°
